Home   Weather   Dubai   Past weeks
Flag for United Arab Emirates

Past Weather in Dubai, Dubai, United Arab Emirates — July 2018

Now
72 °F

Passing clouds.


Feels Like: 76 °F
Forecast: 78 / 65 °F
Wind: 9 mph from West

Location: Dubai International Airport

Current Time: Mar 20, 2019 at 8:04:46 pm

Latest Report: Mar 20, 2019 at 7:00 pm


Visibility: N/A

Pressure: 29.89 "Hg

Humidity: 61%

Dew Point: 57 °F

Location of DubaiLocation

July 2018 Weather in Dubai — Graph

°F

High & Low Weather Summary for July 2018

 TemperatureHumidityPressure
High115 °F (Jul 5, 1:00 pm)84% (Jul 16, 2:00 am)29.56 "Hg (Jul 16, 2:00 am)
Low88 °F (Jul 18, 6:00 am)11% (Jul 27, 4:00 pm)29.27 "Hg (Jul 13, 5:00 pm)
Average99 °F40%29.40 "Hg
* Reported Jul 1 12:00 am — Jul 31 11:00 pm, Dubai. Weather by CustomWeather, © 2019

Note: Actual official high and low records may vary slightly from our data, if they occured in-between our weather recording intervals... More about our weather records

Advertising

Dubai Weather History for July 1, 2018

Scroll right to see more
 ConditionsComfort  
Time TempWeatherWind HumidityBarometerVisibility
12:00 am
Sun, Jul 1
100 °FClear.3 mph22%29.47 "Hg4 mi
1:00 am100 °FClear.6 mph21%29.47 "Hg4 mi
2:00 am99 °FClear.9 mph27%29.47 "Hg5 mi
3:00 am97 °FClear.7 mph30%29.47 "Hg6 mi
3:11 am97 °FClear.12 mph28%29.50 "Hg6 mi
4:00 am97 °FPassing clouds.6 mph22%29.50 "HgN/A
5:00 am97 °FPassing clouds.6 mph17%29.50 "HgN/A
6:00 am97 °FClear.7 mph23%29.53 "Hg4 mi
7:00 am97 °FDuststorm.6 mph30%29.53 "Hg3 mi
8:00 am99 °FDuststorm.8 mph31%29.56 "Hg3 mi
9:00 am99 °FClear.12 mph31%29.56 "Hg5 mi
10:00 am102 °FClear.9 mph27%29.56 "Hg5 mi
11:00 am106 °FClear.9 mph22%29.53 "Hg5 mi
12:00 pm108 °FClear.7 mph19%29.53 "Hg5 mi
1:00 pm108 °FClear.13 mph20%29.53 "Hg5 mi
2:00 pm108 °FClear.14 mph19%29.50 "Hg5 mi
3:00 pm106 °FClear.14 mph23%29.50 "Hg5 mi
4:00 pm106 °FClear.15 mph25%29.47 "Hg5 mi
5:00 pm104 °FClear.14 mph20%29.47 "Hg5 mi
6:00 pm102 °FClear.13 mph33%29.47 "Hg5 mi
7:00 pm97 °FClear.10 mph47%29.47 "Hg5 mi
8:00 pm95 °FPassing clouds.9 mph53%29.47 "HgN/A
9:00 pm93 °FPassing clouds.6 mph59%29.47 "HgN/A
10:00 pm93 °FClear.7 mph56%29.50 "Hg10 mi
11:00 pm95 °FPassing clouds.3 mph50%29.47 "HgN/A
Weather by CustomWeather, © 2019

See weather overview